GFSGBSN_925_temp_057.txt.gz
Temp
13 13 13 13 13 13 13 13 14 14 14 15 15 14 16 16 17 17 17 18 18 18 18 18 17 17 16 18 22 27 26 25 24 24 24 25 26 28 28 29 31 31 32 34 34 29 27
13 13 13 13 12 12 13 13 13 13 13 14 14 14 14 15 16 17 17 18 18 17 17 17 18 17 16 21 29 28 27 25 24 24 25 26 27 30 30 30 30 33 33 34 35 31 28
12 12 12 12 12 12 13 13 13 13 13 13 14 14 14 14 16 17 17 18 18 17 17 17 15 16 20 22 28 29 28 26 26 25 25 27 28 28 31 30 32 32 32 33 34 33 30
12 12 12 12 12 11 12 12 13 13 13 13 13 14 14 15 16 17 18 19 18 18 17 15 15 16 20 27 28 29 29 29 27 27 27 28 29 29 30 31 32 31 31 29 33 33 34
12 11 11 11 11 11 11 11 12 13 12 12 13 13 14 15 16 17 18 19 20 19 18 16 15 16 23 28 28 29 29 30 28 28 28 29 30 29 30 28 27 28 27 30 31 34 34
12 10 10 10 11 11 11 11 12 12 12 12 13 14 14 14 16 17 18 20 21 20 19 16 18 20 24 28 30 29 30 29 29 28 28 28 28 27 26 26 24 26 28 29 31 33 33
11 11 10 10 11 11 11 11 12 12 12 13 13 14 14 15 16 17 18 19 19 18 20 22 24 25 30 30 29 29 30 30 30 28 26 27 25 25 26 27 28 30 30 30 32 34 33
11 11 10 10 10 10 11 11 11 11 12 12 13 14 14 15 17 18 17 17 24 24 22 26 26 28 30 29 29 30 30 28 28 26 27 26 25 27 30 29 29 29 30 30 32 34 33
11 10 9 10 10 11 11 11 11 11 11 12 13 13 14 16 18 20 20 22 24 25 22 25 27 28 28 29 28 28 29 29 27 26 27 25 27 29 30 29 30 30 28 30 30 33 31
11 10 9 10 10 10 11 11 10 10 11 12 12 12 13 16 18 19 20 24 25 25 19 25 26 28 29 29 27 30 30 28 28 27 28 27 29 30 29 29 30 27 31 32 33 30 28
11 9 9 10 10 11 10 10 9 9 10 11 12 13 13 13 15 16 23 25 25 24 20 27 27 28 29 27 28 28 29 28 25 27 28 27 29 29 29 30 31 30 31 31 31 30 29
10 9 10 10 11 9 9 10 9 9 10 11 13 14 14 16 15 21 23 24 24 20 21 27 27 26 26 26 27 28 28 27 27 26 27 27 30 30 30 32 32 32 31 29 29 27 26
10 10 10 10 10 9 8 9 9 9 10 12 15 16 14 15 19 22 23 22 20 20 28 26 25 26 26 26 27 27 27 25 23 24 24 26 28 29 31 29 30 30 28 24 24 25 26
11 10 10 9 8 8 8 9 9 10 11 12 16 17 18 18 21 22 23 20 20 25 25 28 27 27 27 27 27 27 26 24 26 25 24 24 24 28 31 29 29 28 27 23 24 24 27
11 10 10 8 8 8 8 9 9 10 11 11 15 17 18 21 21 22 19 19 22 24 25 25 27 26 26 27 27 26 26 24 26 23 24 22 24 27 29 31 29 28 26 28 26 27 25
11 11 9 8 8 8 9 9 9 10 12 12 12 15 21 23 23 23 19 20 23 23 24 24 23 24 23 25 25 24 25 26 25 24 23 22 20 25 28 30 30 27 29 24 25 24 24
11 10 8 8 8 8 8 9 9 10 12 14 14 18 23 23 23 20 20 22 23 24 24 22 22 22 22 22 22 22 23 23 24 24 23 22 21 21 24 26 27 27 25 26 24 24 24
11 10 8 8 8 8 8 9 9 10 11 13 16 20 23 23 20 22 21 22 20 23 23 23 23 22 21 21 21 21 22 23 24 23 21 21 20 18 21 24 26 26 26 25 22 23 24
12 10 8 8 8 8 9 9 10 10 10 9 15 21 24 24 20 21 22 22 21 21 20 21 21 21 20 19 19 20 21 22 22 21 18 19 18 17 19 23 24 24 25 25 24 23 23
11 10 8 8 8 8 9 9 10 11 11 10 15 20 20 21 21 20 20 20 19 20 19 20 20 19 18 17 19 19 20 22 20 20 21 19 18 17 16 18 20 20 22 23 22 21 22
11 10 8 8 8 8 9 10 11 13 13 11 17 19 20 18 18 19 19 18 18 17 18 19 19 18 16 16 17 17 18 19 19 20 19 17 16 17 18 20 20 20 21 22 21 21 21
11 12 9 8 8 9 10 11 12 13 16 17 16 16 17 17 19 19 17 16 17 16 17 17 16 16 16 15 15 15 16 16 16 18 17 17 15 17 17 19 19 19 20 21 22 23 23
11 12 10 8 8 9 10 11 12 13 15 17 17 19 17 18 18 17 16 17 17 16 17 17 16 15 15 16 16 16 16 16 16 16 16 15 13 13 14 17 17 17 19 20 21 22 22
12 12 10 8 9 9 10 11 12 12 12 12 15 16 17 17 17 16 17 18 17 16 15 17 17 15 16 16 17 16 16 16 17 16 16 15 13 12 12 14 12 17 19 20 20 21 22
12 13 11 8 9 10 10 11 12 13 13 13 14 15 15 16 18 18 18 16 17 17 15 17 17 16 16 16 13 13 16 15 15 16 16 17 15 12 10 12 15 17 18 19 18 17 20
12 13 12 8 9 10 10 11 12 13 13 14 13 14 15 16 17 18 18 17 15 15 16 16 17 17 16 13 12 13 12 12 13 14 15 14 14 13 11 11 12 16 19 20 19 16 20
12 13 13 9 9 10 10 11 11 12 12 12 14 13 14 15 18 18 16 15 16 15 14 16 16 15 15 10 11 10 11 10 10 10 10 10 11 11 12 12 13 13 13 17 15 13 13
12 13 13 10 10 9 10 11 11 12 12 12 14 14 14 15 18 19 19 17 16 15 14 15 15 13 12 11 10 10 10 10 9 9 9 10 10 11 11 12 12 12 12 11 10 10 10
12 14 14 12 12 10 9 10 11 11 12 12 13 14 14 14 16 17 18 19 18 17 16 15 14 14 12 12 11 10 9 10 10 10 11 9 9 9 9 10 11 11 9 9 9 9 9

GFSGBSN_925_temp_060.txt.gz
Temp
13 13 13 13 13 13 13 13 13 13 13 13 14 14 14 14 15 16 16 17 17 17 17 17 17 17 15 16 18 26 26 24 23 23 23 24 23 24 24 26 27 27 29 30 32 27 26
12 12 12 12 12 12 13 13 13 13 13 13 13 13 14 15 15 15 15 17 17 17 17 17 17 15 15 19 27 27 25 23 23 23 23 24 24 25 26 27 27 29 30 30 28 26 24
12 12 11 12 12 12 12 12 13 13 13 13 13 14 14 15 15 16 16 17 18 18 17 17 14 14 15 20 27 27 26 26 25 24 22 24 25 25 26 26 29 29 29 30 30 27 26
13 12 11 11 11 11 11 12 12 13 12 13 13 14 14 14 15 16 17 18 19 19 18 17 15 13 15 26 27 26 26 25 25 25 25 26 25 25 26 27 29 28 28 28 30 27 28
12 12 11 10 10 11 11 11 11 12 12 13 13 13 14 14 15 16 17 19 20 20 18 17 15 14 18 25 27 28 28 27 25 25 25 27 27 25 26 26 24 24 25 27 29 30 26
12 11 11 10 10 10 11 11 11 12 12 13 13 13 14 14 15 16 17 20 19 18 17 15 16 16 21 26 28 29 29 28 26 25 25 26 24 24 23 22 22 25 26 27 28 31 29
12 11 11 10 10 10 11 11 12 12 12 13 13 14 14 14 16 16 17 19 17 17 19 18 19 21 26 28 29 29 29 29 27 25 23 25 22 22 23 24 25 27 26 26 28 30 30
11 11 10 10 10 10 11 11 12 12 13 13 12 13 13 15 17 18 17 15 19 22 20 21 22 23 24 26 27 27 29 27 25 24 24 24 22 24 26 27 27 26 26 26 28 30 29
11 11 9 10 10 11 11 12 11 11 11 11 11 12 14 16 18 18 17 20 24 23 19 21 23 24 25 27 27 27 27 26 26 24 24 22 25 27 27 26 27 25 25 26 27 29 27
11 10 10 10 11 10 10 10 9 9 10 11 12 13 14 16 18 17 19 22 23 23 16 20 23 26 26 26 26 28 28 27 26 24 25 24 27 27 26 26 26 24 26 29 29 28 26
12 12 11 11 10 9 9 9 9 9 10 11 12 13 14 14 15 15 22 22 23 22 19 25 25 27 26 25 26 26 28 26 25 25 25 24 26 26 26 27 27 26 28 28 29 28 27
12 12 12 10 9 9 9 9 9 9 10 13 14 14 14 14 15 21 21 22 22 17 19 24 25 25 25 26 26 26 27 26 26 25 25 24 27 27 26 29 28 29 28 27 24 24 23
12 12 12 10 9 9 9 9 9 9 11 13 15 16 16 16 18 21 21 18 16 17 23 24 24 24 23 24 25 25 25 24 22 22 22 24 26 27 28 27 27 28 23 22 23 23 23
12 11 10 9 8 8 9 9 9 10 11 13 17 18 19 19 21 20 19 16 18 23 21 23 25 23 23 24 24 25 24 22 24 23 20 21 23 26 26 27 26 27 23 21 23 23 23
12 12 10 9 8 8 9 9 9 10 12 13 17 19 19 22 22 19 14 15 18 20 22 22 22 21 20 22 23 24 23 20 22 21 20 19 22 24 26 25 27 26 25 23 22 23 23
12 11 10 8 8 8 8 9 9 11 14 14 15 15 18 22 22 20 14 17 20 21 22 21 19 20 18 19 20 19 20 21 22 21 20 21 20 21 24 24 25 27 26 24 19 22 24
12 11 9 8 8 8 9 9 10 11 14 15 16 14 22 23 23 15 16 19 21 21 21 20 18 18 18 18 19 18 19 21 21 21 19 17 17 19 22 20 21 20 20 22 20 20 20
13 12 9 8 8 8 9 10 11 12 13 15 12 16 22 23 16 14 15 19 20 18 19 18 19 18 17 17 17 18 18 19 20 19 17 17 16 16 19 20 22 22 18 17 19 23 19
13 13 10 8 8 9 10 10 12 12 11 10 10 12 22 22 14 13 17 18 18 17 17 17 17 16 16 15 17 17 19 19 19 18 17 17 14 15 18 17 17 18 19 18 16 16 20
13 13 10 8 8 9 10 11 14 14 13 11 10 15 14 13 14 15 15 16 16 18 17 17 16 15 14 14 14 15 16 18 19 19 20 16 13 14 14 16 17 17 19 19 17 16 17
13 13 11 9 9 10 11 12 14 15 17 15 10 14 15 14 14 14 15 15 15 14 15 14 15 14 13 13 12 13 14 14 17 17 15 14 14 15 16 17 18 18 18 19 18 18 18
13 13 11 9 9 10 11 12 14 15 17 17 12 13 12 12 15 14 13 14 15 15 14 14 13 14 13 12 13 12 12 12 14 13 13 12 13 13 13 16 16 16 17 18 19 19 19
13 13 12 11 9 11 11 13 13 14 15 14 15 15 12 12 13 12 13 15 14 14 14 15 15 13 13 13 14 13 12 12 12 14 13 13 12 11 12 14 15 15 17 17 18 19 19
13 13 12 11 10 11 12 13 13 13 13 13 14 12 11 12 13 14 16 16 15 15 14 15 14 13 14 14 13 13 12 12 13 13 11 11 10 9 10 12 11 15 16 17 17 18 18
13 13 13 12 11 11 12 13 13 13 14 13 13 12 10 11 14 15 15 15 13 14 15 15 15 14 13 11 10 10 10 12 13 12 10 10 9 9 11 9 12 15 14 13 14 15 14
13 13 13 13 11 10 11 13 13 13 14 14 13 14 11 10 12 17 15 14 12 11 11 15 15 15 11 8 8 9 10 9 10 11 10 10 10 9 10 10 10 10 12 13 13 13 10
13 13 13 13 12 10 11 12 13 13 13 14 14 14 13 11 12 15 13 13 13 12 10 13 14 12 10 7 10 9 10 10 7 9 9 9 9 9 11 11 11 11 11 12 13 12 9
13 13 14 13 13 11 11 12 13 13 13 13 14 14 14 10 11 17 16 14 13 11 10 11 10 9 8 7 9 9 9 9 8 9 10 9 8 9 8 10 10 11 11 10 9 8 9
13 13 14 13 13 11 11 11 12 12 12 13 13 14 13 11 12 16 17 17 17 16 11 11 10 10 8 8 8 6 8 9 9 9 10 9 8 7 9 8 9 9 8 7 8 8 8

GFSGBSN_925_temp_063.txt.gz
Temp
12 13 12 11 12 12 12 12 12 13 13 13 13 13 14 14 14 14 15 16 16 16 17 16 16 16 15 15 18 25 25 24 23 23 23 22 22 22 23 23 25 25 26 28 29 26 27
12 12 12 11 11 11 11 11 12 13 13 13 13 13 13 14 14 14 15 16 17 17 17 16 15 16 15 19 25 26 25 23 23 22 22 23 23 23 24 25 25 27 28 27 28 25 27
12 13 12 11 10 10 11 11 12 13 13 13 13 13 13 14 14 14 15 16 17 17 17 16 13 14 14 19 24 25 25 24 24 23 20 24 24 25 24 25 27 27 26 27 25 25 25
12 12 12 11 11 10 11 11 11 12 12 13 13 13 13 14 14 14 16 17 18 19 18 16 14 14 15 23 24 24 23 23 22 23 24 24 25 24 25 25 26 27 25 27 26 25 26
12 11 11 11 10 10 11 11 12 12 12 13 13 13 13 14 15 15 16 18 19 19 18 15 14 14 18 24 23 25 25 24 22 22 23 25 25 23 25 24 22 22 25 26 27 25 26
12 11 11 10 10 11 11 11 12 12 12 12 13 13 13 14 15 15 17 18 16 17 14 13 14 16 20 25 27 27 26 25 23 22 24 24 22 21 20 20 21 24 25 26 27 26 25
11 10 10 10 11 11 11 11 11 11 12 12 12 14 14 15 15 16 16 16 15 16 16 17 18 19 23 25 27 27 27 25 24 23 21 23 21 20 22 22 24 26 25 25 26 27 28
12 12 11 11 11 11 11 10 10 10 10 11 11 13 14 16 16 17 16 15 19 20 17 19 19 20 22 24 24 27 28 25 24 23 23 21 21 22 25 25 25 25 25 24 25 28 26
13 12 12 12 12 11 9 9 9 10 10 11 11 13 14 16 17 16 15 20 19 19 17 19 20 22 23 23 24 27 26 25 24 23 23 21 24 25 25 25 25 25 23 24 25 26 25
12 12 12 12 11 10 9 9 9 9 10 11 12 13 15 17 17 16 17 20 20 20 15 19 21 23 25 25 25 27 27 26 25 23 23 23 25 25 25 25 24 23 24 26 26 26 25
13 12 11 11 10 8 9 9 9 9 10 11 12 13 14 15 15 15 20 21 22 20 19 23 23 26 24 24 25 26 27 26 24 24 23 23 25 24 24 25 25 24 26 25 26 26 25
12 12 11 9 8 8 9 9 9 10 11 12 13 13 14 16 15 20 20 22 22 17 20 24 24 24 24 24 25 25 25 24 24 24 23 24 25 25 24 26 26 27 27 24 21 21 22
13 12 11 9 8 8 9 9 9 10 12 13 16 15 17 17 18 20 20 17 16 17 21 21 23 23 23 23 25 25 24 23 21 21 22 24 25 26 27 26 26 25 22 21 23 21 22
13 12 10 8 8 8 8 9 10 11 13 16 17 19 19 20 21 20 19 16 16 20 20 21 22 21 21 23 24 23 21 18 20 21 18 20 22 25 25 26 25 23 22 20 23 21 23
12 11 9 8 8 8 9 10 10 12 14 17 20 20 20 22 21 19 14 15 17 18 20 20 20 18 18 19 21 21 19 17 19 18 20 19 22 22 25 24 24 25 23 22 19 20 22
13 12 9 8 8 8 10 10 11 13 15 17 17 17 20 21 20 19 14 16 18 18 19 19 18 17 16 17 19 18 17 19 18 19 18 19 21 20 22 23 22 23 23 23 19 21 23
13 13 9 8 9 10 10 11 12 15 16 17 17 15 21 21 21 14 14 17 18 18 19 17 17 16 17 16 16 17 16 19 18 19 16 17 17 20 20 19 20 18 17 16 18 18 19
13 13 10 9 9 10 11 12 13 15 16 17 13 15 21 20 14 11 13 16 17 16 17 17 16 15 16 14 15 16 16 16 18 17 16 16 13 17 18 17 20 19 17 14 16 20 17
13 13 13 10 10 11 12 13 14 15 16 14 11 11 21 21 14 12 15 16 16 15 15 16 15 15 14 14 15 15 16 17 18 17 16 17 13 15 18 17 16 16 17 16 13 13 16
13 13 13 10 10 11 12 13 14 16 17 15 11 14 13 12 11 14 14 14 15 16 15 14 14 13 13 12 11 13 14 16 16 17 18 15 11 13 13 15 15 16 17 17 14 14 15
13 13 13 11 11 12 12 13 14 15 17 16 9 13 13 11 12 12 13 15 14 13 14 13 13 13 13 11 11 12 12 13 15 14 13 12 12 13 14 15 16 17 16 17 17 17 17
13 13 13 12 11 12 12 13 14 15 17 15 11 11 11 11 12 12 11 13 14 14 14 14 13 13 12 12 12 12 12 12 13 12 12 10 12 13 13 14 15 16 16 17 17 18 18
13 14 14 12 12 12 12 13 13 15 17 13 12 12 11 10 11 12 12 14 14 14 14 14 14 12 13 13 13 12 11 12 13 13 11 11 10 10 12 11 14 14 15 16 17 18 17
13 14 14 13 12 12 13 13 13 14 15 14 12 11 10 12 12 13 15 15 15 14 14 14 14 13 14 13 12 11 10 11 11 8 9 10 10 9 10 11 10 14 12 14 16 14 12
13 14 14 13 13 13 12 13 13 14 14 13 13 12 9 11 12 14 14 14 13 12 14 14 14 13 11 10 10 10 9 11 11 9 8 8 8 8 9 7 11 14 11 11 11 11 10
14 14 14 14 13 14 12 13 13 14 14 14 13 13 10 10 12 15 13 13 11 11 11 14 14 12 9 7 7 9 8 8 10 10 9 9 7 8 9 9 10 11 11 12 11 10 9
13 14 14 14 13 13 13 13 13 13 14 14 13 13 12 10 11 14 12 12 11 10 9 9 12 11 8 6 5 5 9 10 5 8 9 7 6 7 11 11 11 10 10 11 11 10 8
12 14 14 14 13 13 14 12 12 13 14 14 13 13 13 9 9 15 15 13 12 9 10 10 10 9 6 6 5 8 9 9 7 9 10 8 7 4 8 8 8 9 10 10 8 7 9
12 13 14 14 14 13 13 12 12 12 13 14 13 13 13 10 11 15 15 16 16 14 9 8 9 8 7 6 6 7 8 9 8 4 10 8 6 5 7 7 8 8 7 9 9 8 8

GFSGBSN_925_temp_069.txt.gz
Temp
12 12 11 11 10 10 10 11 11 12 13 12 13 13 12 12 12 14 14 13 15 16 16 16 16 16 13 18 23 22 22 21 20 22 24 25 25 25 26 26 26 26 27 28 29 28 28
12 12 11 10 10 10 10 11 11 12 11 10 11 12 13 12 12 13 14 14 15 16 16 16 15 14 14 23 22 22 20 20 21 23 23 25 25 26 26 26 26 27 28 29 29 29 28
11 11 11 10 9 11 11 11 11 11 10 10 10 10 11 11 12 13 12 15 16 17 17 16 14 13 17 23 20 21 20 20 21 23 24 24 25 26 26 26 27 28 28 30 28 28 27
11 11 10 10 11 11 12 12 13 12 12 11 10 10 12 12 13 13 14 16 17 18 18 16 12 12 20 20 21 20 21 20 21 23 23 23 24 26 26 26 27 28 28 30 28 28 27
12 12 12 12 12 12 12 12 11 10 11 11 11 11 11 12 11 12 15 14 14 18 16 14 13 14 22 20 20 20 22 22 21 22 23 24 25 26 26 26 27 27 29 29 29 27 27
12 12 12 12 11 10 10 8 8 9 10 10 12 11 12 12 12 14 14 15 14 13 12 12 14 18 21 23 22 21 21 22 23 23 24 24 25 25 25 26 27 27 28 28 29 28 28
12 12 11 10 9 9 8 9 8 9 9 10 11 11 11 11 13 15 14 14 17 17 15 20 21 21 22 23 22 22 22 23 24 24 24 24 24 25 26 26 26 27 28 28 28 29 29
12 10 9 9 9 9 9 8 9 9 10 11 11 11 12 13 14 16 15 19 19 17 20 19 19 20 21 22 24 22 23 25 24 24 24 23 24 25 26 26 26 27 27 28 28 28 29
12 9 9 9 8 8 8 8 9 9 10 11 10 9 12 15 16 15 15 18 18 16 19 21 20 22 23 23 25 23 25 25 25 23 24 24 26 25 26 26 26 27 27 27 28 29 28
13 11 9 8 8 8 8 8 9 10 12 12 9 11 13 16 15 15 17 17 17 17 21 22 22 24 23 24 26 26 26 27 25 25 24 25 26 25 26 26 27 27 27 28 28 28 29
13 12 9 8 8 8 8 10 11 11 12 11 12 13 16 16 16 16 18 18 18 18 21 23 23 23 24 26 26 25 25 27 26 25 25 25 25 26 26 27 27 27 27 28 28 28 28
13 13 9 8 8 8 10 11 12 13 14 14 16 18 18 17 17 18 18 18 18 21 20 23 24 24 25 25 25 25 26 26 25 25 25 26 26 27 27 27 28 28 27 26 26 28 28
13 13 10 9 8 10 11 12 13 14 16 18 19 19 19 18 19 18 18 19 21 20 22 21 21 23 24 23 23 24 23 22 24 24 24 25 26 27 27 27 26 27 28 26 27 27 28
13 13 11 8 10 12 13 13 14 16 17 20 20 20 19 18 17 18 17 21 19 20 20 21 20 22 22 21 21 21 22 22 21 22 24 25 24 25 25 27 27 27 28 28 26 27 29
13 13 12 11 11 12 13 13 14 16 17 20 20 20 19 18 18 17 21 20 18 18 19 19 21 22 21 21 22 21 20 20 20 20 24 24 24 24 24 24 25 25 26 28 26 24 29
13 13 14 13 12 13 14 13 14 17 18 20 19 18 18 19 18 18 21 17 19 18 18 19 20 19 21 20 21 21 19 19 19 19 19 21 23 22 22 23 24 25 24 27 26 26 27
13 13 14 13 13 14 14 13 14 17 18 19 18 21 19 19 18 19 18 18 18 18 18 18 18 18 17 19 19 18 17 19 18 19 19 20 23 22 23 20 20 24 24 23 26 25 28
13 14 14 14 13 14 14 13 15 17 19 19 17 21 20 20 19 15 17 16 15 17 17 18 17 16 16 17 17 18 17 17 17 18 19 18 21 20 20 20 19 21 20 21 27 24 23
13 14 14 14 13 14 14 14 15 17 18 17 18 17 19 18 19 17 16 16 16 17 16 16 16 16 15 15 17 17 17 17 17 18 18 19 19 20 21 21 20 20 20 20 20 22 22
14 14 14 15 14 14 14 14 16 17 18 17 17 19 18 16 13 17 16 16 16 16 15 15 15 16 16 16 16 16 17 17 16 17 16 18 17 20 23 20 20 20 20 20 22 24 22
13 14 14 15 15 14 14 15 16 18 17 17 15 15 13 16 16 15 15 15 15 15 16 16 15 15 15 16 15 15 16 17 18 16 17 18 18 17 17 18 19 19 19 20 21 20 22
13 14 13 14 15 15 14 15 16 18 18 13 17 16 13 14 13 16 14 15 15 15 15 15 14 14 15 14 14 15 15 15 15 17 16 16 17 17 16 17 18 18 18 19 19 20 20
13 14 13 14 14 15 14 14 16 18 18 14 10 11 17 12 14 16 15 15 15 15 15 15 15 15 14 14 14 14 14 14 14 15 15 16 16 16 17 16 17 18 17 18 18 17 19
13 14 13 14 14 15 15 14 15 16 17 15 11 12 17 15 16 15 15 15 15 15 15 15 15 15 13 13 14 14 14 14 14 13 13 15 14 14 16 16 16 15 15 15 16 14 15
13 13 14 14 14 14 14 14 14 14 15 15 12 13 16 15 15 15 15 15 14 14 15 15 14 14 13 14 15 14 14 15 14 13 13 14 15 13 15 16 15 15 14 14 16 14 12
13 13 13 14 14 14 14 14 14 14 15 15 13 13 14 15 16 16 15 14 15 15 15 14 13 11 13 14 13 14 14 12 13 14 13 13 13 15 13 15 16 15 14 13 14 16 11
13 13 13 13 14 13 13 13 13 14 14 14 13 13 13 16 15 15 16 16 14 13 14 13 13 14 12 12 12 12 11 11 12 13 13 13 13 14 14 15 15 14 13 13 14 14 11
13 13 13 13 14 13 13 13 13 13 13 14 13 13 13 14 15 14 15 14 13 14 15 13 14 13 13 12 11 10 10 10 9 9 11 13 13 12 11 12 13 13 12 13 13 11 11
13 13 13 13 14 13 13 13 13 13 13 13 13 12 12 13 15 12 14 15 16 16 15 12 14 13 13 11 9 10 10 10 10 12 10 11 11 11 12 13 13 12 13 13 12 12 11

GFSGBSN_925_temp_072.txt.gz
Temp
12 12 11 11 10 11 11 12 13 13 12 13 13 13 11 13 14 13 12 14 15 16 16 17 16 16 15 23 28 22 23 23 22 25 27 29 29 30 31 31 30 28 31 32 32 32 32
11 11 10 10 11 11 11 11 9 10 10 9 9 11 11 13 13 12 14 15 16 17 17 17 16 16 19 26 23 22 22 23 24 26 28 29 30 31 31 31 31 32 31 32 33 33 32
11 11 11 11 11 11 10 9 9 9 9 9 9 9 10 12 13 13 14 15 16 17 17 17 16 14 21 27 23 23 23 25 25 27 29 29 29 30 31 30 31 31 31 33 33 33 32
11 10 10 10 9 9 9 9 9 9 9 9 9 9 10 12 13 13 14 15 15 18 18 17 16 17 26 23 23 23 24 25 25 27 28 27 28 31 31 31 30 31 32 33 33 33 32
13 13 11 10 9 9 9 9 9 9 9 9 9 10 10 11 12 15 14 12 12 18 17 15 16 20 26 21 23 24 25 25 26 26 26 26 28 30 30 30 31 32 33 34 32 33 32
13 12 10 10 9 8 8 9 8 9 8 10 11 10 10 12 12 14 15 14 13 15 15 16 17 22 24 26 25 24 25 26 27 27 27 27 29 29 30 32 32 32 33 34 33 32 33
13 11 10 9 9 9 8 8 8 9 10 10 10 9 9 12 13 14 13 15 20 21 20 26 26 26 27 26 25 25 25 26 27 27 28 28 28 29 31 32 33 34 33 33 33 33 34
12 11 9 9 9 8 8 8 9 10 10 10 9 9 9 15 15 15 13 23 22 21 24 25 25 25 25 26 26 27 26 27 27 27 29 27 28 31 31 31 30 32 32 33 32 33 33
12 12 9 8 8 8 8 10 11 11 11 9 9 10 13 15 16 15 19 21 19 19 24 25 25 26 27 26 28 26 28 28 27 28 28 29 30 30 29 30 30 31 32 33 33 32 33
13 11 11 9 8 9 10 12 12 13 11 10 13 14 15 16 15 18 22 19 19 19 26 25 26 27 27 28 28 28 27 29 28 28 28 29 30 29 29 30 31 31 32 32 31 32 33
13 12 12 9 9 10 12 13 12 14 15 16 17 17 18 17 19 22 20 19 19 21 25 26 26 26 29 28 28 27 28 29 28 28 28 29 29 28 29 30 31 32 31 31 32 32 32
13 13 13 13 12 12 12 13 14 15 17 18 18 19 19 18 17 20 19 19 21 25 23 25 26 26 27 28 29 28 28 29 30 29 28 30 30 30 30 31 30 31 30 31 31 32 31
13 14 13 14 13 13 14 14 14 16 17 18 19 19 19 19 22 19 19 24 25 24 25 24 25 27 28 27 27 28 27 27 27 26 27 28 28 30 31 30 30 30 31 30 30 30 32
13 14 14 14 13 14 14 14 14 16 17 19 20 19 18 18 18 18 22 25 23 23 23 25 25 27 26 27 26 27 27 26 26 27 29 27 27 29 30 30 29 30 32 32 29 31 32
14 14 14 15 14 14 14 14 15 17 18 19 19 19 22 20 18 19 25 24 22 21 22 23 25 25 25 25 26 26 26 25 25 26 27 28 27 28 28 29 30 30 30 34 32 32 34
14 14 14 15 14 14 14 14 16 17 19 20 20 23 22 20 19 23 25 20 22 21 21 23 24 23 25 25 25 26 25 23 24 24 25 28 26 27 27 28 29 30 32 30 31 30 30
14 14 15 15 14 14 15 16 17 18 19 20 21 25 22 21 21 25 24 22 22 22 21 22 22 23 22 24 24 24 22 22 21 22 24 26 27 26 27 27 29 29 29 30 32 32 32
14 14 15 15 15 15 15 16 17 18 20 19 24 25 22 21 24 23 22 21 17 22 22 21 21 22 22 22 22 22 21 21 21 22 23 24 28 26 26 24 25 27 28 29 30 29 31
14 14 15 15 15 15 16 16 17 17 18 18 24 24 22 24 23 22 21 20 20 21 21 21 21 21 20 21 20 21 22 20 21 22 23 22 24 25 24 25 25 26 26 27 28 30 30
14 14 15 15 15 16 16 17 17 18 18 18 24 23 23 23 22 22 21 20 20 20 20 20 20 21 22 21 22 20 21 21 21 22 18 22 23 22 25 26 27 25 25 26 28 30 30
14 14 15 15 15 16 16 17 17 18 18 17 22 21 19 21 21 21 21 20 19 19 20 20 19 20 20 21 21 20 21 21 22 20 22 24 24 23 22 23 24 25 25 25 26 27 28
14 14 14 14 15 15 16 17 18 18 19 20 22 22 21 20 19 21 19 19 19 19 20 19 19 19 20 19 19 19 21 21 21 22 22 23 22 23 22 22 23 23 23 23 24 25 26
13 14 14 14 14 15 15 16 17 18 19 21 18 18 22 15 21 21 20 19 18 19 18 18 18 19 18 17 19 19 19 20 19 20 21 21 22 22 23 21 22 23 24 23 24 23 25
13 14 14 14 14 14 15 15 16 16 16 18 16 19 22 21 21 20 19 19 18 19 18 18 19 18 17 18 19 20 20 19 19 19 20 20 20 21 23 21 21 20 20 21 23 21 22
13 13 14 13 14 14 14 15 15 15 15 16 15 19 21 20 20 19 19 19 18 18 18 18 17 17 18 18 19 18 19 19 18 18 19 20 20 20 20 22 21 19 19 20 20 19 18
12 13 13 13 13 13 14 14 15 15 15 16 15 14 20 21 21 20 19 19 20 19 18 18 17 17 18 19 18 18 18 18 18 18 19 19 19 19 19 19 20 21 18 18 19 21 17
12 13 13 13 13 13 13 13 14 14 14 14 15 13 18 21 21 20 20 20 19 19 19 18 18 17 18 19 16 16 16 15 15 17 17 18 18 17 19 18 20 19 18 18 18 18 16
12 12 13 13 13 13 13 13 14 14 14 14 15 14 16 20 20 19 20 19 19 20 20 18 18 18 19 17 17 14 15 13 13 14 16 17 16 16 18 17 16 18 17 17 17 16 17
12 12 12 12 13 13 13 13 13 13 13 14 17 13 13 18 20 17 19 18 19 19 20 18 19 18 19 18 16 15 14 15 15 16 16 14 16 15 17 17 17 17 18 16 17 16 16

GFSGBSN_925_temp_075.txt.gz
Temp
12 11 10 10 11 11 12 12 10 10 10 10 10 11 11 12 12 13 15 15 15 16 17 17 17 17 16 25 29 24 24 24 24 25 30 32 32 33 33 35 32 33 34 35 35 35 35
13 13 12 12 12 11 10 9 9 9 9 9 9 9 12 13 12 12 12 15 16 16 17 17 17 16 19 28 27 24 24 24 26 27 30 32 33 34 35 35 34 34 35 35 36 36 35
13 13 12 11 9 9 9 9 9 9 9 9 9 9 10 10 11 13 12 13 17 17 17 18 17 14 25 29 27 26 26 27 28 29 32 32 33 34 34 34 36 35 34 35 36 36 33
12 12 11 9 9 9 9 9 9 9 9 9 9 9 10 10 9 12 14 15 14 18 19 18 17 18 28 27 27 27 28 29 29 29 31 32 32 33 34 35 35 34 35 35 36 36 35
13 11 10 9 9 9 9 9 9 8 8 9 10 10 10 10 10 12 14 15 15 18 19 18 17 21 29 24 27 28 29 29 29 30 31 30 31 32 33 33 33 34 35 36 35 37 36
13 12 10 9 9 9 9 9 9 10 10 10 10 11 10 10 11 14 15 15 15 14 16 17 22 25 27 28 29 28 28 29 30 31 30 30 31 32 33 33 33 34 35 37 36 36 36
13 11 9 9 9 9 9 10 10 11 11 10 9 9 9 11 13 15 14 16 21 23 23 28 29 29 30 30 28 29 29 29 30 30 29 30 31 31 33 34 36 37 36 36 37 37 37
13 13 10 9 9 9 11 11 12 12 12 9 9 9 10 13 15 16 15 25 26 25 27 28 29 29 30 29 28 30 29 29 29 29 31 31 30 34 35 35 35 36 37 37 36 36 37
14 14 13 9 10 12 12 13 13 13 11 11 10 12 14 16 17 16 22 25 24 24 26 28 29 29 29 30 30 29 30 31 30 30 31 31 33 34 34 34 34 35 36 37 35 35 36
13 14 14 13 12 13 13 13 13 14 16 15 16 17 17 18 17 24 25 24 24 24 26 27 28 29 30 30 30 31 30 31 30 30 31 32 34 33 33 33 34 34 36 37 36 35 34
14 14 14 14 13 13 14 14 14 15 16 17 18 19 19 19 18 25 24 24 25 25 26 28 29 30 30 30 31 30 30 31 30 31 31 31 32 32 31 32 34 34 36 35 36 35 36
14 14 14 15 13 14 14 14 14 16 17 19 20 20 20 20 19 24 24 24 25 25 25 28 29 28 29 30 30 31 30 32 32 31 32 32 33 33 32 34 34 35 34 34 35 35 34
14 14 14 15 14 14 14 14 15 17 18 19 20 20 20 19 25 24 24 26 25 26 28 27 28 29 29 29 30 29 29 29 29 29 29 30 31 33 33 33 34 34 33 32 32 33 34
14 14 14 15 15 14 14 14 16 17 18 20 20 20 21 21 23 24 25 26 24 26 27 28 28 29 29 30 30 29 29 29 31 31 31 30 29 32 33 33 32 33 34 34 31 33 35
15 15 15 15 15 15 15 15 17 18 19 20 21 21 24 25 24 23 27 24 24 25 26 27 28 28 29 29 29 29 29 30 30 30 28 31 31 33 32 34 34 32 32 36 36 37 36
14 14 15 15 16 15 16 17 18 19 20 21 22 26 26 25 25 26 27 23 25 25 26 27 27 28 27 28 28 28 28 27 28 28 29 30 29 31 31 31 32 32 34 33 34 33 33
14 14 15 15 16 16 16 17 19 19 20 21 22 28 26 26 26 28 25 25 25 25 26 26 25 26 25 26 28 28 27 26 26 28 28 30 30 29 30 30 31 31 32 33 35 35 34
14 14 15 15 16 16 16 17 18 19 21 22 27 27 26 26 27 27 26 25 19 26 26 25 25 25 24 25 26 25 26 25 25 27 28 29 29 29 29 31 30 31 33 33 32 32 34
14 14 15 15 16 16 16 17 18 19 20 20 27 27 26 27 26 26 25 24 25 25 25 25 25 25 26 24 24 25 25 24 25 27 27 27 29 28 28 29 30 29 31 32 34 34 33
13 14 14 15 15 16 16 17 18 19 19 18 27 27 27 27 27 26 25 24 24 23 24 24 25 25 25 24 25 25 24 24 24 25 19 23 28 27 26 29 30 29 30 30 31 32 32
13 14 14 14 15 16 17 17 18 19 20 19 27 25 25 25 25 25 25 24 23 23 24 24 23 24 25 25 24 24 26 24 24 21 24 27 25 26 26 27 29 30 29 29 29 31 32
13 13 14 14 15 16 16 17 18 20 21 24 26 26 26 25 24 25 21 23 23 23 23 23 23 23 24 24 24 25 25 26 26 25 26 27 25 25 25 25 26 27 28 27 29 30 30
13 13 14 14 14 15 16 16 17 19 21 24 23 24 26 19 25 25 23 23 22 22 22 22 22 22 22 22 23 23 24 24 24 24 25 25 26 25 25 25 24 24 26 27 28 29 29
12 13 13 14 14 14 15 16 16 17 18 21 21 23 26 25 25 24 23 23 22 22 21 22 22 22 21 22 22 24 24 23 23 24 25 24 24 25 26 26 22 24 24 27 27 27 26
12 13 13 14 14 14 14 15 15 17 18 20 21 23 25 24 24 23 23 22 22 21 22 21 21 21 21 22 23 21 22 22 22 23 24 24 24 23 23 25 25 23 23 23 24 23 24
12 12 13 13 14 14 14 14 15 16 17 19 19 19 24 24 24 23 23 23 24 23 22 21 21 21 22 23 21 20 21 21 22 21 23 24 23 23 23 22 24 23 23 23 25 23 22
12 12 13 13 14 14 14 14 14 15 16 17 19 17 22 24 24 23 24 23 23 23 23 22 21 21 22 22 20 19 19 18 18 21 21 21 21 20 22 22 24 22 22 22 21 21 21
11 12 12 13 13 14 13 14 14 14 15 16 19 17 19 24 24 23 23 22 22 23 23 21 22 22 22 21 20 18 17 18 17 18 20 21 19 19 21 22 20 22 21 21 20 20 20
11 11 12 13 13 14 14 14 14 14 15 16 20 17 17 21 23 22 22 22 22 22 23 22 22 22 23 21 20 20 17 20 18 18 20 18 20 17 20 20 20 21 21 20 21 20 20